Time,TemperatureF,DewpointF,PressureIn,WindDirection,WindDirectionDegrees,WindSpeedMPH,WindSpeedGustMPH,Humidity,HourlyPrecipIn,Conditions,Clouds,dailyrainin,SoftwareType,DateUTC
2013-08-04 00:11:00,57.5,54.0,30.09,NE,36,0.0,0.0,88,0.00,,---,0.00,VWS V14.01,2013-08-04 05:11:00,
2013-08-04 00:16:00,57.3,54.1,30.09,NE,36,0.0,0.0,89,0.00,,---,0.00,VWS V14.01,2013-08-04 05:16:00,
2013-08-04 00:21:00,57.2,54.0,30.09,NE,36,0.0,0.0,89,0.00,,---,0.00,VWS V14.01,2013-08-04 05:21:00,
2013-08-04 00:31:00,57.0,53.8,30.10,NE,36,0.0,0.0,89,0.00,,---,0.00,VWS V14.01,2013-08-04 05:31:00,
2013-08-04 00:36:00,57.0,53.8,30.09,NE,36,0.0,0.0,89,0.00,,---,0.00,VWS V14.01,2013-08-04 05:36:00,
2013-08-04 00:41:00,57.0,53.8,30.09,NE,36,0.0,0.0,89,0.00,,---,0.00,VWS V14.01,2013-08-04 05:41:00,
2013-08-04 00:46:00,57.0,54.1,30.10,NE,36,0.0,0.0,90,0.00,,---,0.00,VWS V14.01,2013-08-04 05:46:00,
2013-08-04 00:56:00,56.9,54.0,30.09,NE,36,0.0,0.0,90,0.00,,---,0.00,VWS V14.01,2013-08-04 05:56:00,
2013-08-04 01:01:00,56.9,54.0,30.09,NE,36,0.0,0.0,90,0.00,,---,0.00,VWS V14.01,2013-08-04 06:01:00,
2013-08-04 01:06:00,56.7,53.8,30.09,NE,36,0.0,0.0,90,0.00,,---,0.00,VWS V14.01,2013-08-04 06:06:00,
2013-08-04 01:16:00,56.9,54.3,30.09,NE,36,0.0,0.0,91,0.00,,---,0.00,VWS V14.01,2013-08-04 06:16:00,
2013-08-04 01:21:00,56.9,54.3,30.09,NE,36,0.0,0.0,91,0.00,,---,0.00,VWS V14.01,2013-08-04 06:21:00,
2013-08-04 01:26:00,56.7,54.1,30.09,NE,35,0.0,0.0,91,0.00,,---,0.00,VWS V14.01,2013-08-04 06:26:00,
2013-08-04 01:31:00,56.7,54.1,30.09,NE,35,0.0,0.0,91,0.00,,---,0.00,VWS V14.01,2013-08-04 06:31:00,
2013-08-04 01:36:00,56.6,54.0,30.09,NE,35,0.0,0.0,91,0.00,,---,0.00,VWS V14.01,2013-08-04 06:36:00,
2013-08-04 01:46:00,56.5,53.9,30.09,NNE,22,0.0,0.0,91,0.00,,---,0.00,VWS V14.01,2013-08-04 06:46:00,
2013-08-04 01:51:00,56.5,53.9,30.09,NNE,19,0.0,0.0,91,0.00,,---,0.00,VWS V14.01,2013-08-04 06:51:00,
2013-08-04 02:01:00,56.3,53.7,30.09,NNE,19,0.0,0.0,91,0.00,,---,0.00,VWS V14.01,2013-08-04 07:01:00,
2013-08-04 02:11:00,56.2,53.6,30.09,NNE,20,0.0,0.0,91,0.00,,---,0.00,VWS V14.01,2013-08-04 07:11:00,
2013-08-04 02:21:00,56.2,53.6,30.09,NNE,23,0.0,0.0,91,0.00,,---,0.00,VWS V14.01,2013-08-04 07:21:00,
2013-08-04 02:31:00,56.0,53.4,30.08,NNE,23,0.0,0.0,91,0.00,,---,0.00,VWS V14.01,2013-08-04 07:31:00,
2013-08-04 02:36:00,56.0,53.1,30.08,NNE,23,0.0,0.0,90,0.00,,---,0.00,VWS V14.01,2013-08-04 07:36:00,
2013-08-04 02:46:00,55.6,52.7,30.08,NNE,23,0.0,0.0,90,0.00,,---,0.00,VWS V14.01,2013-08-04 07:46:00,
2013-08-04 02:51:00,55.3,52.4,30.08,NNE,23,0.0,0.0,90,0.00,,---,0.00,VWS V14.01,2013-08-04 07:51:00,
2013-08-04 03:01:00,54.8,51.9,30.07,NNE,23,0.0,0.0,90,0.00,,---,0.00,VWS V14.01,2013-08-04 08:01:00,
2013-08-04 03:06:00,54.7,51.8,30.07,NNE,23,0.0,0.0,90,0.00,,---,0.00,VWS V14.01,2013-08-04 08:06:00,
2013-08-04 03:11:00,54.5,51.6,30.07,NNE,23,0.0,0.0,90,0.00,,---,0.00,VWS V14.01,2013-08-04 08:11:00,
2013-08-04 03:16:00,54.4,51.5,30.07,NNE,23,0.0,0.0,90,0.00,,---,0.00,VWS V14.01,2013-08-04 08:16:00,
2013-08-04 03:26:00,54.2,51.6,30.06,NNE,23,0.0,0.0,91,0.00,,---,0.00,VWS V14.01,2013-08-04 08:26:00,
2013-08-04 03:36:00,54.4,51.8,30.06,NNE,23,0.0,0.0,91,0.00,,---,0.00,VWS V14.01,2013-08-04 08:36:00,
2013-08-04 03:41:00,54.4,51.8,30.06,NNE,23,0.0,0.0,91,0.00,,---,0.00,VWS V14.01,2013-08-04 08:41:00,
2013-08-04 03:46:00,54.2,51.6,30.06,NNE,23,0.0,0.0,91,0.00,,---,0.00,VWS V14.01,2013-08-04 08:46:00,
2013-08-04 03:56:00,53.9,51.3,30.05,NNE,23,0.0,0.0,91,0.00,,---,0.00,VWS V14.01,2013-08-04 08:56:00,
2013-08-04 04:01:00,53.9,51.3,30.05,NNE,24,0.0,0.0,91,0.00,,---,0.00,VWS V14.01,2013-08-04 09:01:00,
2013-08-04 04:11:00,53.5,50.9,30.06,NNE,26,0.0,0.0,91,0.00,,---,0.00,VWS V14.01,2013-08-04 09:11:00,
2013-08-04 04:21:00,53.2,50.7,30.05,NNE,26,0.0,0.0,91,0.00,,---,0.00,VWS V14.01,2013-08-04 09:21:00,
2013-08-04 04:26:00,52.9,50.3,30.06,NNE,26,0.0,0.0,91,0.00,,---,0.00,VWS V14.01,2013-08-04 09:26:00,
2013-08-04 04:31:00,52.6,50.0,30.07,NNE,26,0.0,0.0,91,0.00,,---,0.00,VWS V14.01,2013-08-04 09:31:00,
2013-08-04 04:36:00,52.6,50.3,30.07,NNE,26,0.0,0.0,92,0.00,,---,0.00,VWS V14.01,2013-08-04 09:36:00,
2013-08-04 04:46:00,52.9,50.6,30.07,NNE,26,0.0,0.0,92,0.00,,---,0.00,VWS V14.01,2013-08-04 09:46:00,
2013-08-04 04:56:00,53.2,50.9,30.07,NNE,26,0.0,0.0,92,0.00,,---,0.00,VWS V14.01,2013-08-04 09:56:00,
2013-08-04 05:01:00,53.5,51.2,30.06,NNE,26,0.0,0.0,92,0.00,,---,0.00,VWS V14.01,2013-08-04 10:01:00,
2013-08-04 05:06:00,53.5,51.2,30.07,NNE,26,0.0,0.0,92,0.00,,---,0.00,VWS V14.01,2013-08-04 10:06:00,
2013-08-04 05:11:00,53.3,51.0,30.07,NNE,26,0.0,0.0,92,0.00,,---,0.00,VWS V14.01,2013-08-04 10:11:00,
2013-08-04 05:16:00,53.3,51.0,30.07,NNE,26,0.0,0.0,92,0.00,,---,0.00,VWS V14.01,2013-08-04 10:16:00,
2013-08-04 05:21:00,53.3,51.3,30.07,NNE,26,0.0,0.0,93,0.00,,---,0.00,VWS V14.01,2013-08-04 10:21:00,
2013-08-04 05:26:00,53.5,51.5,30.07,NNE,26,0.0,0.0,93,0.00,,---,0.00,VWS V14.01,2013-08-04 10:26:00,
2013-08-04 05:31:00,53.5,51.5,30.07,NNE,26,0.0,0.0,93,0.00,,---,0.00,VWS V14.01,2013-08-04 10:31:00,
2013-08-04 05:36:00,53.5,51.5,30.06,NNE,26,0.0,0.0,93,0.00,,---,0.00,VWS V14.01,2013-08-04 10:36:00,
2013-08-04 05:41:00,53.6,51.6,30.07,NNE,26,0.0,0.0,93,0.00,,---,0.00,VWS V14.01,2013-08-04 10:41:00,
2013-08-04 05:51:00,53.6,51.6,30.07,NNE,26,0.0,0.0,93,0.00,,---,0.00,VWS V14.01,2013-08-04 10:51:00,
2013-08-04 05:56:00,53.3,51.3,30.07,NNE,26,0.0,0.0,93,0.00,,---,0.00,VWS V14.01,2013-08-04 10:56:00,
2013-08-04 06:01:00,52.9,50.6,30.08,NNE,26,0.0,0.0,92,0.00,,---,0.00,VWS V14.01,2013-08-04 11:01:00,
2013-08-04 06:06:00,52.5,50.2,30.08,NNE,26,0.0,0.0,92,0.00,,---,0.00,VWS V14.01,2013-08-04 11:06:00,
2013-08-04 06:16:00,52.0,50.0,30.09,NNE,26,0.0,0.0,93,0.00,,---,0.00,VWS V14.01,2013-08-04 11:16:00,
2013-08-04 06:21:00,51.9,49.9,30.09,NNE,26,0.0,0.0,93,0.00,,---,0.00,VWS V14.01,2013-08-04 11:21:00,
2013-08-04 06:31:00,51.4,49.5,30.09,NNE,26,0.0,0.0,93,0.00,,---,0.00,VWS V14.01,2013-08-04 11:31:00,
2013-08-04 06:36:00,51.4,49.5,30.10,NNE,26,0.0,0.0,93,0.00,,---,0.00,VWS V14.01,2013-08-04 11:36:00,
2013-08-04 06:41:00,51.3,49.3,30.09,NNE,26,0.0,0.0,93,0.00,,---,0.00,VWS V14.01,2013-08-04 11:41:00,
2013-08-04 06:46:00,51.3,49.3,30.09,NNE,26,0.0,0.0,93,0.00,,---,0.00,VWS V14.01,2013-08-04 11:46:00,
2013-08-04 06:51:00,51.3,49.3,30.09,NNE,26,0.0,0.0,93,0.00,,---,0.00,VWS V14.01,2013-08-04 11:51:00,
2013-08-04 06:56:00,51.3,49.3,30.10,NNE,26,0.0,0.0,93,0.00,,---,0.00,VWS V14.01,2013-08-04 11:56:00,
2013-08-04 07:06:00,51.9,49.9,30.10,NNE,26,0.0,0.0,93,0.00,,---,0.00,VWS V14.01,2013-08-04 12:06:00,
2013-08-04 07:16:00,53.1,51.4,30.10,NNE,26,0.0,0.0,94,0.00,,---,0.00,VWS V14.01,2013-08-04 12:16:00,
2013-08-04 07:21:00,53.8,52.1,30.10,NNE,26,0.0,0.0,94,0.00,,---,0.00,VWS V14.01,2013-08-04 12:21:00,
2013-08-04 07:26:00,54.5,52.8,30.10,NNE,26,0.0,0.0,94,0.00,,---,0.00,VWS V14.01,2013-08-04 12:26:00,
2013-08-04 07:36:00,55.3,53.6,30.10,NNE,26,0.0,0.0,94,0.00,,---,0.00,VWS V14.01,2013-08-04 12:36:00,
2013-08-04 07:41:00,55.7,54.3,30.10,NNE,26,0.0,0.0,95,0.00,,---,0.00,VWS V14.01,2013-08-04 12:41:00,
2013-08-04 07:46:00,56.2,54.8,30.10,NNE,26,0.0,0.0,95,0.00,,---,0.00,VWS V14.01,2013-08-04 12:46:00,
2013-08-04 07:51:00,56.6,55.2,30.10,NNE,26,0.0,0.0,95,0.00,,---,0.00,VWS V14.01,2013-08-04 12:51:00,
2013-08-04 07:56:00,57.3,55.9,30.10,NNE,26,0.0,0.0,95,0.00,,---,0.00,VWS V14.01,2013-08-04 12:56:00,
2013-08-04 08:11:00,59.8,58.4,30.10,NNE,26,0.0,0.0,95,0.00,,---,0.00,VWS V14.01,2013-08-04 13:11:00,
2013-08-04 08:16:00,60.5,58.8,30.11,NNE,26,0.0,0.0,94,0.00,,---,0.00,VWS V14.01,2013-08-04 13:16:00,
2013-08-04 08:26:00,61.6,59.3,30.11,NNE,26,0.0,0.0,92,0.00,,---,0.00,VWS V14.01,2013-08-04 13:26:00,
2013-08-04 08:31:00,62.3,59.3,30.11,NNE,26,0.0,0.0,90,0.00,,---,0.00,VWS V14.01,2013-08-04 13:31:00,
2013-08-04 08:41:00,63.1,58.8,30.10,NE,39,0.0,1.0,86,0.00,,---,0.00,VWS V14.01,2013-08-04 13:41:00,
2013-08-04 08:51:00,65.2,60.6,30.10,NE,39,0.0,0.0,85,0.00,,---,0.00,VWS V14.01,2013-08-04 13:51:00,
2013-08-04 08:56:00,66.1,61.1,30.10,NE,39,0.0,0.0,84,0.00,,---,0.00,VWS V14.01,2013-08-04 13:56:00,
2013-08-04 09:01:00,66.6,60.2,30.09,East,80,0.0,1.0,80,0.00,,---,0.00,VWS V14.01,2013-08-04 14:01:00,
2013-08-04 09:06:00,66.8,60.4,30.10,East,83,0.0,1.0,80,0.00,,---,0.00,VWS V14.01,2013-08-04 14:06:00,
2013-08-04 09:11:00,66.6,59.5,30.10,East,86,0.0,1.0,78,0.00,,---,0.00,VWS V14.01,2013-08-04 14:11:00,
2013-08-04 09:16:00,67.3,60.9,30.09,East,86,0.0,1.0,80,0.00,,---,0.00,VWS V14.01,2013-08-04 14:16:00,
2013-08-04 09:21:00,67.6,60.1,30.09,East,86,0.0,1.0,77,0.00,,---,0.00,VWS V14.01,2013-08-04 14:21:00,
2013-08-04 09:26:00,67.9,60.4,30.09,East,86,1.0,1.0,77,0.00,,---,0.00,VWS V14.01,2013-08-04 14:26:00,
2013-08-04 09:36:00,68.8,60.2,30.08,East,88,0.0,0.0,74,0.00,,---,0.00,VWS V14.01,2013-08-04 14:36:00,
2013-08-04 09:41:00,69.1,59.3,30.09,East,86,0.0,1.0,71,0.00,,---,0.00,VWS V14.01,2013-08-04 14:41:00,
2013-08-04 09:46:00,69.8,59.6,30.09,East,88,0.0,0.0,70,0.00,,---,0.00,VWS V14.01,2013-08-04 14:46:00,
2013-08-04 09:56:00,70.3,60.1,30.09,ESE,109,1.0,1.0,70,0.00,,---,0.00,VWS V14.01,2013-08-04 14:56:00,
2013-08-04 10:01:00,70.3,59.7,30.09,SE,125,0.0,2.0,69,0.00,,---,0.00,VWS V14.01,2013-08-04 15:01:00,
2013-08-04 10:06:00,70.3,60.1,30.09,SE,132,0.0,2.0,70,0.00,,---,0.00,VWS V14.01,2013-08-04 15:06:00,
2013-08-04 10:11:00,70.4,59.8,30.09,SE,139,0.0,1.0,69,0.00,,---,0.00,VWS V14.01,2013-08-04 15:11:00,
2013-08-04 10:16:00,70.1,58.2,30.08,SE,140,0.0,5.0,66,0.00,,---,0.00,VWS V14.01,2013-08-04 15:16:00,
2013-08-04 10:26:00,70.9,59.4,30.08,East,100,0.0,3.0,67,0.00,,---,0.00,VWS V14.01,2013-08-04 15:26:00,
2013-08-04 10:31:00,71.8,59.4,30.07,SE,128,1.0,4.0,65,0.00,,---,0.00,VWS V14.01,2013-08-04 15:31:00,
2013-08-04 10:36:00,72.0,60.0,30.07,ESE,123,0.0,3.0,66,0.00,,---,0.00,VWS V14.01,2013-08-04 15:36:00,
2013-08-04 10:46:00,72.8,60.8,30.07,ESE,114,1.0,1.0,66,0.00,,---,0.00,VWS V14.01,2013-08-04 15:46:00,
2013-08-04 10:51:00,73.3,60.0,30.07,SE,132,0.0,2.0,63,0.00,,---,0.00,VWS V14.01,2013-08-04 15:51:00,
2013-08-04 11:01:00,74.0,59.7,30.06,ESE,122,0.0,7.0,61,0.00,,---,0.00,VWS V14.01,2013-08-04 16:01:00,
2013-08-04 11:06:00,74.6,59.8,30.06,ESE,121,0.0,2.0,60,0.00,,---,0.00,VWS V14.01,2013-08-04 16:06:00,
2013-08-04 11:11:00,73.5,58.3,30.06,SSE,150,1.0,6.0,59,0.00,,---,0.00,VWS V14.01,2013-08-04 16:11:00,
2013-08-04 11:21:00,72.3,58.1,30.05,ESE,109,2.0,5.0,61,0.00,,---,0.00,VWS V14.01,2013-08-04 16:21:00,
2013-08-04 11:26:00,72.1,57.9,30.05,ESE,117,1.0,10.0,61,0.00,,---,0.00,VWS V14.01,2013-08-04 16:26:00,
2013-08-04 11:31:00,72.1,58.4,30.05,ESE,105,0.0,3.0,62,0.00,,---,0.00,VWS V14.01,2013-08-04 16:31:00,
2013-08-04 11:36:00,72.0,57.8,30.06,SSE,150,0.0,3.0,61,0.00,,---,0.00,VWS V14.01,2013-08-04 16:36:00,
2013-08-04 11:46:00,72.7,58.0,30.06,ESE,117,2.0,6.0,60,0.00,,---,0.00,VWS V14.01,2013-08-04 16:46:00,
2013-08-04 11:51:00,73.5,58.3,30.06,ESE,110,2.0,6.0,59,0.00,,---,0.00,VWS V14.01,2013-08-04 16:51:00,
2013-08-04 12:01:00,73.3,57.7,30.06,SE,129,4.0,6.0,58,0.00,,---,0.00,VWS V14.01,2013-08-04 17:01:00,
2013-08-04 12:11:00,73.5,59.2,30.06,ESE,111,0.0,5.0,61,0.00,,---,0.00,VWS V14.01,2013-08-04 17:11:00,
2013-08-04 12:16:00,73.9,58.7,30.05,ESE,103,1.0,6.0,59,0.00,,---,0.00,VWS V14.01,2013-08-04 17:16:00,
2013-08-04 12:26:00,74.6,58.9,30.05,ESE,105,2.0,4.0,58,0.00,,---,0.00,VWS V14.01,2013-08-04 17:26:00,
2013-08-04 12:31:00,74.6,58.9,30.05,ESE,115,2.0,6.0,58,0.00,,---,0.00,VWS V14.01,2013-08-04 17:31:00,
2013-08-04 12:36:00,74.7,59.9,30.05,ESE,103,5.0,6.0,60,0.00,,---,0.00,VWS V14.01,2013-08-04 17:36:00,
2013-08-04 12:41:00,74.7,58.5,30.04,ESE,119,0.0,5.0,57,0.00,,---,0.00,VWS V14.01,2013-08-04 17:41:00,
2013-08-04 12:46:00,74.6,59.3,30.04,ESE,115,0.0,2.0,59,0.00,,---,0.00,VWS V14.01,2013-08-04 17:46:00,
2013-08-04 12:51:00,74.2,58.0,30.04,SE,136,0.0,6.0,57,0.00,,---,0.00,VWS V14.01,2013-08-04 17:51:00,
2013-08-04 12:56:00,74.0,59.2,30.04,SE,133,2.0,3.0,60,0.00,,---,0.00,VWS V14.01,2013-08-04 17:56:00,
2013-08-04 13:01:00,74.2,59.0,30.04,SE,140,1.0,4.0,59,0.00,,---,0.00,VWS V14.01,2013-08-04 18:01:00,
2013-08-04 13:06:00,74.4,59.6,30.03,ESE,116,0.0,3.0,60,0.00,,---,0.00,VWS V14.01,2013-08-04 18:06:00,
2013-08-04 13:11:00,74.7,58.5,30.03,ESE,121,3.0,6.0,57,0.00,,---,0.00,VWS V14.01,2013-08-04 18:11:00,
2013-08-04 13:16:00,75.3,59.0,30.03,ESE,115,7.0,7.0,57,0.00,,---,0.00,VWS V14.01,2013-08-04 18:16:00,
2013-08-04 13:26:00,76.0,59.7,30.03,SE,131,0.0,2.0,57,0.00,,---,0.00,VWS V14.01,2013-08-04 18:26:00,
2013-08-04 13:31:00,76.5,59.7,30.02,SSE,147,1.0,4.0,56,0.00,,---,0.00,VWS V14.01,2013-08-04 18:31:00,
2013-08-04 13:36:00,76.3,60.0,30.03,NE,40,1.0,11.0,57,0.00,,---,0.00,VWS V14.01,2013-08-04 18:36:00,
2013-08-04 13:41:00,76.8,60.4,30.03,South,187,0.0,1.0,57,0.00,,---,0.00,VWS V14.01,2013-08-04 18:41:00,
2013-08-04 13:46:00,76.8,59.4,30.02,SSW,209,1.0,3.0,55,0.00,,---,0.00,VWS V14.01,2013-08-04 18:46:00,
2013-08-04 13:51:00,77.2,59.3,30.02,South,175,1.0,5.0,54,0.00,,---,0.00,VWS V14.01,2013-08-04 18:51:00,
2013-08-04 14:01:00,77.6,59.1,30.02,ESE,111,0.0,2.0,53,0.00,,---,0.00,VWS V14.01,2013-08-04 19:01:00,
2013-08-04 14:06:00,77.6,58.1,30.01,SSW,194,0.0,1.0,51,0.00,,---,0.00,VWS V14.01,2013-08-04 19:06:00,
2013-08-04 14:11:00,77.6,59.1,30.02,South,169,1.0,5.0,53,0.00,,---,0.00,VWS V14.01,2013-08-04 19:11:00,
2013-08-04 14:16:00,77.2,58.2,30.02,SE,130,0.0,3.0,52,0.00,,---,0.00,VWS V14.01,2013-08-04 19:16:00,
2013-08-04 14:21:00,77.4,58.4,30.01,ESE,123,0.0,1.0,52,0.00,,---,0.00,VWS V14.01,2013-08-04 19:21:00,
2013-08-04 14:26:00,77.6,58.1,30.01,ESE,113,0.0,2.0,51,0.00,,---,0.00,VWS V14.01,2013-08-04 19:26:00,
2013-08-04 14:31:00,77.0,58.6,30.01,West,277,0.0,7.0,53,0.00,,---,0.00,VWS V14.01,2013-08-04 19:31:00,
2013-08-04 14:41:00,77.0,57.5,30.01,SE,138,4.0,5.0,51,0.00,,---,0.00,VWS V14.01,2013-08-04 19:41:00,
2013-08-04 14:46:00,77.0,58.6,30.01,SE,125,2.0,7.0,53,0.00,,---,0.00,VWS V14.01,2013-08-04 19:46:00,
2013-08-04 14:56:00,76.8,57.3,30.01,SE,128,2.0,5.0,51,0.00,,---,0.00,VWS V14.01,2013-08-04 19:56:00,
2013-08-04 15:01:00,77.6,59.1,30.01,South,182,1.0,6.0,53,0.00,,---,0.00,VWS V14.01,2013-08-04 20:01:00,
2013-08-04 15:06:00,78.1,58.0,30.00,SSW,199,0.0,2.0,50,0.00,,---,0.00,VWS V14.01,2013-08-04 20:06:00,
2013-08-04 15:11:00,78.1,58.0,30.00,ESE,110,3.0,6.0,50,0.00,,---,0.00,VWS V14.01,2013-08-04 20:11:00,
2013-08-04 15:16:00,77.6,58.1,30.00,ESE,121,0.0,6.0,51,0.00,,---,0.00,VWS V14.01,2013-08-04 20:16:00,
2013-08-04 15:21:00,77.6,59.1,30.00,East,99,1.0,4.0,53,0.00,,---,0.00,VWS V14.01,2013-08-04 20:21:00,
2013-08-04 15:26:00,77.7,59.2,29.99,SSW,203,0.0,4.0,53,0.00,,---,0.00,VWS V14.01,2013-08-04 20:26:00,
2013-08-04 15:31:00,78.1,58.0,30.00,SW,233,0.0,2.0,50,0.00,,---,0.00,VWS V14.01,2013-08-04 20:31:00,
2013-08-04 15:36:00,78.5,59.4,29.99,SSW,202,0.0,1.0,52,0.00,,---,0.00,VWS V14.01,2013-08-04 20:36:00,
2013-08-04 15:46:00,78.6,59.0,29.99,SSE,166,0.0,1.0,51,0.00,,---,0.00,VWS V14.01,2013-08-04 20:46:00,
2013-08-04 15:56:00,78.6,58.4,29.99,NNE,24,0.0,6.0,50,0.00,,---,0.00,VWS V14.01,2013-08-04 20:56:00,
2013-08-04 16:01:00,78.6,57.3,29.99,SE,126,0.0,1.0,48,0.00,,---,0.00,VWS V14.01,2013-08-04 21:01:00,
2013-08-04 16:11:00,78.8,58.6,29.99,SE,135,0.0,5.0,50,0.00,,---,0.00,VWS V14.01,2013-08-04 21:11:00,
2013-08-04 16:16:00,78.3,57.0,29.99,East,101,0.0,7.0,48,0.00,,---,0.00,VWS V14.01,2013-08-04 21:16:00,
2013-08-04 16:21:00,78.1,56.8,29.99,SSE,168,0.0,4.0,48,0.00,,---,0.00,VWS V14.01,2013-08-04 21:21:00,
2013-08-04 16:26:00,77.9,58.3,29.98,South,187,1.0,1.0,51,0.00,,---,0.00,VWS V14.01,2013-08-04 21:26:00,
2013-08-04 16:31:00,77.4,57.3,29.99,South,187,0.0,1.0,50,0.00,,---,0.00,VWS V14.01,2013-08-04 21:31:00,
2013-08-04 16:36:00,77.2,57.1,29.99,ESE,111,1.0,3.0,50,0.00,,---,0.00,VWS V14.01,2013-08-04 21:36:00,
2013-08-04 16:41:00,76.7,57.8,29.98,ESE,106,0.0,1.0,52,0.00,,---,0.00,VWS V14.01,2013-08-04 21:41:00,
2013-08-04 16:51:00,76.7,58.8,29.98,ESE,116,0.0,7.0,54,0.00,,---,0.00,VWS V14.01,2013-08-04 21:51:00,
2013-08-04 16:56:00,77.0,58.6,29.98,ESE,107,0.0,2.0,53,0.00,,---,0.00,VWS V14.01,2013-08-04 21:56:00,
2013-08-04 17:01:00,77.2,58.8,29.98,ESE,110,0.0,1.0,53,0.00,,---,0.00,VWS V14.01,2013-08-04 22:01:00,
2013-08-04 17:06:00,77.4,59.5,29.98,East,98,0.0,1.0,54,0.00,,---,0.00,VWS V14.01,2013-08-04 22:06:00,
2013-08-04 17:11:00,77.6,58.6,29.98,ESE,116,0.0,2.0,52,0.00,,---,0.00,VWS V14.01,2013-08-04 22:11:00,
2013-08-04 17:16:00,77.0,58.0,29.98,SE,126,1.0,2.0,52,0.00,,---,0.00,VWS V14.01,2013-08-04 22:16:00,
2013-08-04 17:26:00,77.0,58.0,29.98,SE,139,0.0,2.0,52,0.00,,---,0.00,VWS V14.01,2013-08-04 22:26:00,
2013-08-04 17:31:00,77.6,58.6,29.97,ESE,113,0.0,2.0,52,0.00,,---,0.00,VWS V14.01,2013-08-04 22:31:00,
2013-08-04 17:36:00,77.7,58.7,29.97,ESE,106,1.0,3.0,52,0.00,,---,0.00,VWS V14.01,2013-08-04 22:36:00,
2013-08-04 17:46:00,78.6,59.0,29.97,ESE,109,0.0,1.0,51,0.00,,---,0.00,VWS V14.01,2013-08-04 22:46:00,
2013-08-04 17:51:00,78.6,59.5,29.97,SE,135,0.0,2.0,52,0.00,,---,0.00,VWS V14.01,2013-08-04 22:51:00,
2013-08-04 18:01:00,77.7,58.7,29.97,ESE,106,0.0,1.0,52,0.00,,---,0.00,VWS V14.01,2013-08-04 23:01:00,
2013-08-04 18:06:00,77.4,60.5,29.97,ESE,106,0.0,0.0,56,0.00,,---,0.00,VWS V14.01,2013-08-04 23:06:00,
2013-08-04 18:11:00,77.0,59.1,29.97,ESE,106,0.0,0.0,54,0.00,,---,0.00,VWS V14.01,2013-08-04 23:11:00,
2013-08-04 18:16:00,76.8,59.4,29.96,ESE,117,0.0,0.0,55,0.00,,---,0.00,VWS V14.01,2013-08-04 23:16:00,
2013-08-04 18:26:00,76.8,59.4,29.96,ESE,113,0.0,0.0,55,0.00,,---,0.00,VWS V14.01,2013-08-04 23:26:00,
2013-08-04 18:31:00,76.8,58.4,29.96,ESE,114,0.0,2.0,53,0.00,,---,0.00,VWS V14.01,2013-08-04 23:31:00,
2013-08-04 18:36:00,76.7,59.8,29.95,ESE,114,0.0,1.0,56,0.00,,---,0.00,VWS V14.01,2013-08-04 23:36:00,
2013-08-04 18:41:00,76.5,59.7,29.95,ESE,114,0.0,1.0,56,0.00,,---,0.00,VWS V14.01,2013-08-04 23:41:00,
2013-08-04 18:51:00,76.5,59.7,29.95,SE,144,0.0,2.0,56,0.00,,---,0.00,VWS V14.01,2013-08-04 23:51:00,
2013-08-04 18:56:00,76.5,60.2,29.95,SE,143,0.0,1.0,57,0.00,,---,0.00,VWS V14.01,2013-08-04 23:56:00,
2013-08-04 19:06:00,75.8,60.5,29.94,ESE,113,0.0,1.0,59,0.00,,---,0.00,VWS V14.01,2013-08-05 00:06:00,
2013-08-04 19:11:00,75.6,60.8,29.94,ESE,104,0.0,1.0,60,0.00,,---,0.00,VWS V14.01,2013-08-05 00:11:00,
2013-08-04 19:16:00,75.3,60.9,29.94,ESE,117,0.0,1.0,61,0.00,,---,0.00,VWS V14.01,2013-08-05 00:16:00,
2013-08-04 19:26:00,75.1,60.3,29.94,ESE,117,1.0,1.0,60,0.00,,---,0.00,VWS V14.01,2013-08-05 00:26:00,
2013-08-04 19:31:00,74.7,60.4,29.94,ESE,114,0.0,1.0,61,0.00,,---,0.00,VWS V14.01,2013-08-05 00:31:00,
2013-08-04 19:41:00,74.2,60.8,29.94,ESE,114,1.0,1.0,63,0.00,,---,0.00,VWS V14.01,2013-08-05 00:41:00,
2013-08-04 19:46:00,73.9,61.4,29.94,ESE,114,0.0,1.0,65,0.00,,---,0.00,VWS V14.01,2013-08-05 00:46:00,
2013-08-04 19:51:00,73.5,61.5,29.94,ESE,114,0.0,0.0,66,0.00,,---,0.00,VWS V14.01,2013-08-05 00:51:00,
2013-08-04 20:01:00,72.8,61.6,29.93,ESE,114,0.0,1.0,68,0.00,,---,0.00,VWS V14.01,2013-08-05 01:01:00,
2013-08-04 20:06:00,72.5,61.3,29.92,ESE,110,0.0,1.0,68,0.00,,---,0.00,VWS V14.01,2013-08-05 01:06:00,
2013-08-04 20:11:00,72.1,61.4,29.92,ESE,110,0.0,0.0,69,0.00,,---,0.00,VWS V14.01,2013-08-05 01:11:00,
2013-08-04 20:21:00,71.1,60.8,29.92,ESE,110,0.0,1.0,70,0.00,,---,0.00,VWS V14.01,2013-08-05 01:21:00,
2013-08-04 20:31:00,70.4,60.6,29.92,ESE,110,0.0,1.0,71,0.00,,---,0.00,VWS V14.01,2013-08-05 01:31:00,
2013-08-04 20:36:00,70.1,60.7,29.92,ESE,110,0.0,2.0,72,0.00,,---,0.00,VWS V14.01,2013-08-05 01:36:00,
2013-08-04 20:41:00,69.6,60.2,29.92,ESE,110,0.0,1.0,72,0.00,,---,0.00,VWS V14.01,2013-08-05 01:41:00,
2013-08-04 20:46:00,69.1,60.1,29.92,ESE,110,0.0,1.0,73,0.00,,---,0.00,VWS V14.01,2013-08-05 01:46:00,
2013-08-04 20:51:00,68.8,60.2,29.93,ESE,110,0.0,1.0,74,0.00,,---,0.00,VWS V14.01,2013-08-05 01:51:00,
2013-08-04 21:06:00,67.6,60.1,29.92,ESE,110,0.0,1.0,77,0.00,,---,0.00,VWS V14.01,2013-08-05 02:06:00,
2013-08-04 21:11:00,67.3,60.2,29.93,ESE,110,0.0,1.0,78,0.00,,---,0.00,VWS V14.01,2013-08-05 02:11:00,
2013-08-04 21:16:00,67.1,60.0,29.93,ESE,110,0.0,0.0,78,0.00,,---,0.00,VWS V14.01,2013-08-05 02:16:00,
2013-08-04 21:21:00,67.1,60.0,29.93,ESE,110,0.0,1.0,78,0.00,,---,0.00,VWS V14.01,2013-08-05 02:21:00,
2013-08-04 21:31:00,66.9,60.2,29.93,ESE,111,0.0,1.0,79,0.00,,---,0.00,VWS V14.01,2013-08-05 02:31:00,
2013-08-04 21:36:00,66.8,60.1,29.93,ESE,111,0.0,0.0,79,0.00,,---,0.00,VWS V14.01,2013-08-05 02:36:00,
2013-08-04 21:41:00,66.6,59.9,29.93,ESE,113,0.0,0.0,79,0.00,,---,0.00,VWS V14.01,2013-08-05 02:41:00,
2013-08-04 21:46:00,66.4,59.7,29.93,ESE,113,0.0,1.0,79,0.00,,---,0.00,VWS V14.01,2013-08-05 02:46:00,
2013-08-04 21:56:00,66.3,59.6,29.93,ESE,120,0.0,0.0,79,0.00,,---,0.00,VWS V14.01,2013-08-05 02:56:00,
2013-08-04 22:06:00,66.3,59.6,29.93,ESE,120,0.0,0.0,79,0.00,,---,0.00,VWS V14.01,2013-08-05 03:06:00,
2013-08-04 22:16:00,66.0,59.3,29.93,ESE,119,0.0,0.0,79,0.00,,---,0.00,VWS V14.01,2013-08-05 03:16:00,
2013-08-04 22:26:00,65.8,59.5,29.93,ESE,119,0.0,0.0,80,0.00,,---,0.00,VWS V14.01,2013-08-05 03:26:00,
2013-08-04 22:31:00,65.8,59.5,29.93,ESE,118,0.0,0.0,80,0.00,,---,0.00,VWS V14.01,2013-08-05 03:31:00,
2013-08-04 22:36:00,65.6,59.3,29.93,ESE,115,0.0,0.0,80,0.00,,---,0.00,VWS V14.01,2013-08-05 03:36:00,
2013-08-04 22:41:00,65.8,59.5,29.93,ESE,111,0.0,1.0,80,0.00,,---,0.00,VWS V14.01,2013-08-05 03:41:00,
2013-08-04 22:51:00,66.1,59.4,29.92,SE,127,0.0,1.0,79,0.00,,---,0.00,VWS V14.01,2013-08-05 03:51:00,
2013-08-04 22:56:00,66.3,59.6,29.92,ESE,118,0.0,2.0,79,0.00,,---,0.00,VWS V14.01,2013-08-05 03:56:00,
2013-08-04 23:01:00,66.3,59.6,29.92,ESE,113,0.0,2.0,79,0.00,,---,0.00,VWS V14.01,2013-08-05 04:01:00,
2013-08-04 23:06:00,66.4,59.7,29.92,ESE,121,0.0,3.0,79,0.00,,---,0.00,VWS V14.01,2013-08-05 04:06:00,
2013-08-04 23:11:00,66.4,59.7,29.92,ESE,119,0.0,2.0,79,0.00,,---,0.00,VWS V14.01,2013-08-05 04:11:00,
2013-08-04 23:16:00,66.6,59.5,29.91,ESE,122,0.0,3.0,78,0.00,,---,0.00,VWS V14.01,2013-08-05 04:16:00,
2013-08-04 23:21:00,66.6,59.5,29.91,ESE,119,0.0,1.0,78,0.00,,---,0.00,VWS V14.01,2013-08-05 04:21:00,
2013-08-04 23:26:00,66.8,59.7,29.90,ESE,112,0.0,2.0,78,0.00,,---,0.00,VWS V14.01,2013-08-05 04:26:00,
2013-08-04 23:31:00,66.8,59.7,29.90,SE,146,0.0,2.0,78,0.00,,---,0.00,VWS V14.01,2013-08-05 04:31:00,
2013-08-04 23:41:00,66.6,59.2,29.89,SSE,149,0.0,4.0,77,0.00,,---,0.00,VWS V14.01,2013-08-05 04:41:00,
2013-08-04 23:46:00,66.8,59.4,29.89,ESE,119,0.0,5.0,77,0.00,,---,0.00,VWS V14.01,2013-08-05 04:46:00,
2013-08-04 23:51:00,66.8,59.4,29.89,SE,132,0.0,3.0,77,0.00,,---,0.00,VWS V14.01,2013-08-05 04:51:00,
2013-08-04 23:56:00,66.8,59.4,29.89,ESE,119,2.0,2.0,77,0.00,,---,0.00,VWS V14.01,2013-08-05 04:56:00,